Regional Weather Roundup
Issued by NWS

Home | Current Version | Previous Version | Text Only | Print | Product List | Glossary Off
Versions: 1 2 3 4 5 6 7 8 9 10 11 12 13 14 15 16 17 18 19 20 21 22 23 24 25 26 27 28 29 30 31 32 33 34 35 36 37 38 39 40 41 42 43 44 45 46 47 48 49 50

083
ASUS45 KBOI 230810
RWRID

IDAHO REGIONAL WEATHER ROUNDUP
NATIONAL WEATHER SERVICE BOISE ID
200 AM MDT WED AUG 23 2017

NOTE: "FAIR" INDICATES FEW OR NO CLOUDS BELOW 12000 FEET
WITH NO SIGNIFICANT WEATHER AND/OR OBSTRUCTIONS TO VISIBILITY

IDZ012-014-230900-
SOUTHWEST IDAHO


CITY           SKY/WX    TMP DP  RH WIND       PRES   REMARKS
BOISE          MOCLDY    72  41  32 E7        30.00R
CALDWELL       MOCLDY    62  56  80 SE3       29.97R
MOUNTAIN HOME  CLOUDY    71  47  42 E6        30.00R
$$

IDZ016-017-230900-
SOUTHCENTRAL IDAHO


CITY           SKY/WX    TMP DP  RH WIND       PRES   REMARKS
BURLEY         MOCLDY    73  48  41 S17       30.09R
JEROME         CLOUDY    75  49  39 S13       30.10R
TWIN FALLS     CLOUDY    76  47  35 S18G28    30.10S
$$

IDZ019>023-230900-
SOUTHEAST IDAHO


CITY           SKY/WX    TMP DP  RH WIND       PRES   REMARKS
IDAHO FALLS    CLEAR     62  41  46 SW7       30.16R
POCATELLO      CLEAR     69  47  45 VRB5      30.14R
REXBURG        CLEAR     55  41  59 NE3       30.17R
$$

IDZ006-010-011-018-031-032-230900-
CENTRAL IDAHO MOUNTAINS


CITY           SKY/WX    TMP DP  RH WIND       PRES   REMARKS
MCCALL         CLEAR     55  40  56 CALM      30.15S
HAILEY         PTCLDY    59  36  41 NW9       30.20S
STANLEY          N/A     48  31  51 S6        30.30R
SALMON         CLEAR     55  42  61 CALM      30.14R
CHALLIS        CLEAR     60  34  37 CALM      30.18S HAZE
$$

IDZ002-004-006-007-026-230900-
NORTHERN IDAHO


CITY           SKY/WX    TMP DP  RH WIND       PRES   REMARKS
LEWISTON       CLEAR     71  41  33 S5        29.93R
LOWELL           N/A     61  50  67 CALM      30.00R
COEUR D`ALENE  CLEAR     65  49  56 SE5       29.98R
MULLAN PASS    CLEAR     66  34  30 SW7       30.20S
$$




USA.gov is the U.S. government's official web portal to all federal, state and local government web resources and services.